Theta_e
292 292 291 291 291 290 290 290 291 291 291 292 292 292 293 294 294 294 296 297 299 299 298 297 297 297 296 296 296 296 296 295 295 295 295 296 297 298 304 312 315 314 314 314 314 314 313 313 313 313 312 312 312 313 314 314 314 314 313 314 314 313
292 291 291 290 290 290 290 289 290 290 289 288 288 289 291 293 294 294 295 296 298 298 298 297 297 297 296 296 296 296 296 296 295 295 295 295 296 297 300 308 314 314 313 313 313 313 313 312 312 312 311 311 311 312 313 313 313 313 313 313 313 313
291 291 290 289 288 288 288 287 286 286 285 285 285 286 288 291 292 293 294 295 296 297 298 298 297 297 297 296 296 296 296 296 295 295 295 294 295 296 298 304 312 314 313 313 313 312 312 312 311 311 311 310 310 311 312 312 312 312 312 312 312 312
291 290 288 287 286 286 285 283 283 283 283 284 284 284 285 287 288 289 292 294 295 296 297 297 297 297 297 296 296 296 296 295 295 295 295 294 294 295 296 300 308 313 313 313 313 312 312 312 311 310 310 310 310 311 311 311 311 311 311 311 311 311
289 288 286 285 284 283 282 281 281 281 281 281 282 283 284 284 284 285 288 292 294 295 296 296 297 297 297 297 296 296 296 296 295 295 294 294 294 294 296 297 303 311 314 313 313 312 311 311 310 310 310 310 310 310 310 310 310 310 311 310 310 310
288 286 284 283 282 281 281 280 280 280 280 279 279 280 280 281 282 283 286 289 292 294 295 296 296 297 297 297 297 297 296 295 295 295 294 294 293 294 295 296 299 306 313 313 312 312 311 310 310 310 310 310 310 310 310 309 309 310 311 310 310 309
287 285 283 282 281 280 280 279 279 278 278 278 278 278 278 279 279 281 284 285 287 289 292 294 295 296 297 297 297 297 296 295 295 295 294 294 294 293 294 296 297 302 311 313 312 312 311 310 310 310 309 310 310 311 311 310 309 309 310 310 309 309
285 284 282 281 280 279 279 278 278 277 277 277 277 277 277 277 278 279 281 283 284 285 288 291 292 294 295 296 297 297 296 295 295 295 294 293 293 293 293 295 296 299 308 313 312 312 312 310 309 309 309 310 310 311 311 310 309 309 310 310 309 309
283 282 282 280 279 278 278 277 277 276 276 276 276 276 277 277 277 278 279 280 281 282 284 287 290 292 294 295 296 296 296 295 294 294 294 293 293 293 292 293 294 297 305 312 312 312 311 310 309 309 309 310 310 310 310 310 309 309 309 310 309 308
282 281 280 279 278 277 276 276 275 275 275 275 275 275 276 276 277 278 278 279 279 279 280 282 285 288 290 293 295 296 296 295 294 294 294 293 293 293 292 293 294 295 302 311 312 312 311 310 309 309 309 309 310 310 310 310 309 309 309 309 308 308
281 280 279 278 277 276 275 274 274 274 274 274 274 275 275 276 277 277 278 278 278 279 279 279 281 282 285 288 291 293 294 294 294 293 293 293 293 293 292 293 293 294 300 310 312 311 311 310 309 309 309 309 309 309 310 309 309 309 309 309 308 307
280 279 279 277 276 275 274 273 273 273 273 273 274 275 275 276 277 277 277 278 278 279 279 279 279 280 281 283 286 289 291 292 293 293 293 293 293 293 293 293 294 294 299 309 311 310 310 309 309 309 309 309 309 309 309 308 308 308 308 307 307 307
279 278 277 276 275 274 273 273 272 272 272 273 273 274 275 275 276 277 277 278 278 279 279 279 279 279 280 281 283 285 287 289 291 291 292 293 292 293 293 293 294 294 299 308 311 309 309 309 309 310 309 309 309 309 308 307 307 307 306 306 306 306
278 277 276 275 274 273 273 272 272 272 272 272 273 273 274 275 275 276 277 277 278 279 279 279 279 279 279 280 281 283 284 286 289 290 291 292 292 293 293 293 294 295 300 308 311 309 309 309 310 310 310 309 310 309 309 308 306 306 305 305 305 305
277 276 275 274 273 272 272 271 271 271 271 272 272 273 274 274 275 276 276 277 278 279 279 279 279 279 279 279 281 282 284 285 287 289 290 291 292 293 293 294 294 295 300 307 310 309 309 309 309 310 310 309 309 310 309 308 306 305 305 305 304 304
276 276 274 274 273 272 271 271 271 271 271 271 272 272 273 273 274 275 276 277 278 278 279 279 279 279 279 279 280 282 284 285 287 288 290 291 292 293 294 294 294 295 300 307 309 309 308 309 309 310 310 309 309 309 309 308 307 306 305 305 304 304
276 275 274 273 272 272 271 271 271 271 271 271 271 272 272 273 273 275 276 277 278 278 279 279 279 279 279 279 280 283 285 286 287 289 290 291 292 293 294 295 295 296 301 306 308 309 308 308 309 310 310 310 309 309 309 308 307 306 305 305 304 304
275 274 273 273 272 272 271 271 271 271 271 271 271 271 272 272 273 274 274 276 277 278 279 279 279 279 280 280 280 283 286 287 288 289 290 291 293 294 295 295 295 297 301 305 307 308 308 308 309 309 310 310 310 309 308 308 307 306 305 305 304 304
274 273 272 272 272 271 271 271 271 271 271 271 271 271 271 272 272 273 274 275 276 278 279 279 279 279 280 280 281 283 286 288 289 290 291 292 293 294 295 295 296 299 302 304 306 307 307 307 308 309 309 309 310 309 307 307 306 305 305 304 304 303
273 272 272 271 271 271 271 271 271 271 271 271 271 271 271 271 272 272 273 273 274 276 278 279 279 279 280 280 282 283 285 288 290 291 292 293 294 295 295 296 298 300 302 303 305 306 306 306 307 308 309 309 310 309 307 306 306 305 304 304 303 303
272 272 271 271 271 271 271 271 271 270 270 270 270 270 271 271 271 271 271 272 272 273 275 277 278 279 279 281 282 283 285 288 291 292 293 294 294 295 296 297 299 301 302 303 305 306 306 306 307 308 308 309 309 309 307 306 305 305 304 304 303 302
272 271 271 271 271 271 271 271 270 270 270 270 270 270 270 270 270 270 270 270 271 271 273 276 277 279 280 281 282 283 286 289 292 293 293 294 294 295 296 297 299 301 302 303 304 305 306 306 306 307 308 309 309 308 307 306 306 305 304 304 304 303
271 271 270 270 270 270 270 270 270 269 269 269 269 269 269 269 269 269 269 269 270 270 272 274 277 279 280 281 282 283 287 290 292 292 293 293 294 295 296 297 299 300 301 302 303 304 305 306 306 306 307 309 309 308 307 306 306 305 304 304 304 303
271 270 270 270 270 270 270 269 269 269 268 268 268 268 268 268 268 268 268 269 269 270 271 273 276 279 281 282 283 284 286 289 291 291 292 293 294 295 296 297 298 300 301 301 302 303 304 305 306 306 307 308 308 308 307 306 306 306 305 304 303 303
270 269 269 269 269 269 269 269 268 268 268 267 267 267 267 267 267 267 268 268 269 270 272 274 276 279 282 283 284 285 286 288 290 290 291 293 294 295 295 296 298 299 300 300 301 302 302 303 304 305 306 307 307 307 307 306 306 306 305 304 303 303
269 268 268 268 268 268 269 268 268 267 267 267 266 266 266 266 267 267 268 268 269 271 272 274 277 281 284 285 285 286 287 288 289 290 292 293 294 295 296 296 298 298 299 299 300 301 301 302 303 304 305 306 306 306 306 306 305 305 305 304 304 303
267 267 267 267 267 268 268 268 267 266 266 266 266 266 266 266 266 267 268 268 270 271 273 275 277 281 285 286 287 288 288 289 290 291 292 293 294 295 296 297 298 298 298 299 300 300 301 301 301 302 303 304 306 306 306 305 305 305 305 304 304 304
266 266 266 266 267 267 267 267 266 265 265 265 265 266 266 266 266 267 268 269 270 272 274 275 277 281 285 287 288 288 289 290 290 291 292 294 295 296 296 297 298 298 298 299 300 300 300 300 300 300 301 302 303 304 305 305 305 304 304 304 303 303
266 266 266 266 266 267 267 266 265 265 264 265 265 265 265 265 266 267 268 269 271 272 274 277 279 283 286 288 289 289 290 290 291 292 293 294 294 295 296 297 297 298 298 299 299 300 299 299 299 300 300 300 301 302 303 304 304 304 303 303 302 302
265 265 265 265 265 266 266 265 264 264 264 264 264 264 265 265 266 267 269 270 272 274 276 278 281 283 286 288 290 291 292 292 292 293 293 294 294 295 296 296 297 297 298 299 299 299 299 298 299 299 299 299 299 300 301 302 302 302 302 302 301 301
264 264 264 264 265 265 265 264 264 263 263 263 263 263 264 265 266 268 270 272 274 276 277 279 282 284 286 288 290 291 292 293 293 293 294 294 295 295 296 297 297 298 298 299 299 299 298 298 298 299 299 299 300 300 300 301 301 301 301 301 300 300
263 263 263 264 264 264 264 263 263 263 263 262 262 263 264 265 266 269 270 272 274 275 277 280 282 284 286 287 289 290 292 293 293 294 294 294 294 295 295 296 297 298 298 299 299 299 299 299 299 299 299 299 300 300 300 301 301 301 301 300 299 298
263 263 263 263 263 263 263 262 262 262 262 262 262 262 263 264 267 269 270 271 272 273 275 278 281 284 286 287 289 290 291 292 293 294 295 295 295 294 295 295 296 297 299 299 299 299 299 299 299 300 300 300 300 300 300 301 301 301 300 299 299 298
262 262 262 263 262 262 261 261 262 262 261 261 261 262 263 264 266 268 269 269 270 272 273 275 277 280 283 286 288 290 292 293 294 294 295 295 295 295 295 295 296 297 298 299 299 299 299 299 299 299 300 300 300 300 300 300 301 301 300 299 299 298
261 261 262 262 261 261 261 261 261 261 260 260 261 261 262 264 266 267 268 268 269 270 271 273 274 276 278 281 284 287 290 292 293 294 295 295 295 295 295 296 296 297 298 299 299 300 300 299 299 299 299 300 300 300 300 300 300 300 299 299 298 297
261 261 261 261 261 260 260 260 260 260 260 260 260 261 262 264 265 266 267 268 268 269 270 270 271 272 274 276 279 282 285 288 290 293 294 294 295 295 295 295 296 297 298 298 299 300 300 299 299 299 299 300 300 299 299 299 299 299 299 298 297 297
260 260 260 260 260 259 259 259 259 259 259 260 260 260 262 263 264 265 266 267 267 268 268 269 269 270 271 273 275 277 280 283 285 288 291 293 294 295 295 294 294 295 295 296 297 298 299 299 299 299 299 299 300 300 299 298 297 297 297 297 297 297
259 259 259 259 258 258 258 259 259 258 259 259 260 260 261 262 263 264 265 266 267 267 267 267 268 268 269 271 272 273 275 277 278 280 282 284 286 287 288 288 288 289 291 293 294 296 297 297 298 298 298 298 299 300 298 297 296 296 296 296 296 296
Wind_Speed
42 46 48 50 52 52 49 46 42 39 37 37 39 42 41 38 36 34 30 27 25 26 27 26 24 22 23 24 23 22 23 26 29 29 32 33 31 36 39 34 45 45 45 47 46 47 47 47 48 47 46 47 45 45 46 48 49 47 46 47 47 46
44 49 48 47 50 51 47 41 36 35 39 42 44 46 44 39 35 34 33 30 28 29 29 28 27 27 26 26 25 23 23 25 26 28 30 33 31 34 40 34 42 47 45 46 46 46 47 47 47 48 48 46 45 44 45 47 47 46 44 45 46 45
42 48 48 46 45 43 40 39 39 38 39 40 41 42 42 39 36 34 35 35 32 31 30 29 28 28 28 28 27 26 26 25 25 27 28 31 31 32 37 36 36 47 46 46 47 46 47 48 46 47 47 45 45 45 45 48 48 46 45 45 45 44
38 44 46 47 44 39 39 40 40 38 36 34 35 35 36 36 36 37 37 36 36 34 33 33 30 28 30 30 28 28 27 26 26 26 27 29 31 31 33 38 34 44 48 46 48 47 47 48 47 46 46 45 46 47 46 47 48 46 44 44 46 45
37 38 38 44 44 40 39 38 36 36 35 34 34 34 34 34 35 38 38 36 35 35 34 35 33 30 30 28 27 29 28 26 26 26 26 27 30 31 33 37 35 37 47 45 46 47 47 49 48 47 47 46 46 47 46 46 49 48 44 43 47 48
37 33 33 40 42 40 41 39 38 38 36 35 35 35 36 36 35 35 36 35 35 33 32 34 34 33 31 27 25 29 29 26 26 25 26 26 27 30 32 35 38 33 42 45 43 45 46 47 49 48 48 47 47 49 47 45 48 50 47 45 48 51
35 32 35 40 40 40 40 40 39 39 37 36 36 36 35 35 35 34 33 33 35 34 32 32 33 34 34 30 27 29 29 26 26 25 25 26 26 29 30 32 38 35 37 46 43 45 46 47 50 50 48 47 47 49 49 47 48 50 49 46 48 52
30 33 37 40 39 38 38 38 39 39 38 37 35 35 35 33 33 33 32 32 32 33 34 33 32 33 36 35 31 30 30 27 25 25 23 24 27 28 30 32 35 37 35 47 46 45 47 47 49 50 49 49 48 46 48 48 49 50 49 47 49 54
30 32 36 40 39 38 38 38 38 37 37 37 36 35 34 33 32 32 32 32 31 32 33 34 34 34 34 35 34 32 31 27 24 25 23 24 27 29 31 32 34 37 34 45 49 47 48 47 47 49 50 51 48 45 44 45 46 48 48 49 51 55
32 33 36 40 39 39 40 39 38 38 36 36 36 35 34 33 32 32 32 31 31 31 32 34 36 36 34 33 31 29 30 29 25 25 25 24 27 29 31 32 33 38 35 41 49 49 48 46 46 48 49 50 49 47 46 44 43 45 47 48 49 53
31 32 34 40 41 39 40 39 37 37 36 36 37 36 35 34 33 33 32 32 32 31 31 32 34 37 36 35 32 28 28 30 28 27 27 25 27 30 32 33 33 37 36 38 47 47 46 45 45 48 49 49 49 49 49 47 45 45 45 45 45 48
31 32 32 38 41 40 40 39 37 36 36 37 38 37 38 37 35 35 34 34 35 32 32 32 32 34 35 35 34 31 29 30 30 29 29 27 28 30 32 34 33 36 36 37 43 43 45 45 44 49 51 51 51 49 48 45 44 44 42 41 41 43
33 34 32 35 42 43 41 40 39 38 37 37 38 38 39 38 37 38 37 37 37 36 35 35 33 32 34 35 34 32 32 33 32 31 30 29 30 30 31 33 34 36 36 37 43 43 45 45 45 49 52 54 54 52 48 45 44 44 41 38 39 42
33 35 34 38 42 43 42 41 39 38 38 39 39 39 40 39 39 40 40 39 39 37 36 36 35 33 33 34 33 31 32 34 34 33 32 30 30 30 29 31 33 35 35 37 43 44 45 45 47 52 53 54 56 55 51 47 45 45 42 39 40 41
33 37 39 41 42 42 43 43 40 39 39 41 42 41 41 41 41 41 41 41 40 37 36 36 35 35 34 33 32 31 30 32 33 33 32 31 31 30 28 30 33 35 35 36 40 42 42 43 46 51 54 54 55 55 52 47 46 46 45 43 42 40
36 42 43 43 44 44 44 42 41 42 42 42 41 41 40 42 42 42 41 40 38 36 35 35 35 36 35 33 32 30 28 30 32 32 30 30 30 30 28 29 32 35 35 36 39 40 40 41 45 50 53 53 52 53 51 47 45 46 45 46 44 42
40 44 44 45 45 45 44 43 42 43 43 42 41 40 40 41 41 41 40 39 38 35 34 34 33 33 33 31 31 29 27 28 29 30 29 29 30 29 28 28 30 33 34 34 37 39 38 40 45 50 52 53 53 52 50 46 44 44 44 44 44 43
43 43 45 47 46 44 44 44 43 42 41 41 41 41 40 40 39 39 39 38 37 35 32 31 31 32 31 29 29 28 26 25 26 27 28 28 29 29 28 28 29 31 33 32 33 35 36 38 45 50 51 53 53 52 48 43 41 41 41 42 43 44
45 45 45 46 45 44 43 42 43 43 43 42 41 40 38 37 36 36 36 36 35 34 31 29 30 31 30 28 27 26 25 24 24 25 26 25 26 26 27 28 28 29 31 31 30 32 33 35 42 49 51 52 53 51 46 41 38 38 38 39 42 43
46 46 46 45 43 42 41 42 44 44 42 41 40 38 36 35 35 35 35 35 36 36 33 31 30 30 29 28 26 24 24 23 23 24 24 24 24 25 27 28 27 27 28 30 32 32 32 33 39 46 49 50 52 50 45 41 36 35 36 37 38 40
47 46 44 43 42 41 41 43 44 41 38 38 38 37 35 35 36 36 37 37 37 37 35 33 31 30 28 27 25 23 24 24 22 22 22 22 23 23 26 27 25 25 25 29 33 34 33 33 36 42 46 47 50 49 45 40 35 32 33 34 35 36
45 43 41 41 42 42 43 44 42 38 37 37 37 35 34 36 38 39 40 39 38 37 35 33 31 29 27 25 24 25 25 23 20 19 19 21 22 22 24 25 23 23 24 27 30 32 34 33 34 39 44 45 47 48 44 38 35 33 32 32 33 33
43 42 40 39 40 41 41 41 39 36 36 36 34 34 36 39 40 41 40 39 38 36 35 33 31 28 26 23 23 25 24 19 16 16 18 20 21 21 22 22 21 22 23 25 28 31 34 35 34 37 41 43 46 48 46 41 37 36 34 32 32 32
42 43 42 41 40 39 38 38 37 36 35 34 34 38 40 40 40 40 40 39 38 36 34 33 29 26 24 22 20 22 22 18 15 16 19 20 20 20 20 20 19 19 19 22 27 30 34 36 36 37 40 43 45 48 48 45 40 39 37 33 31 33
40 42 44 43 41 39 38 36 35 35 34 34 38 41 41 40 40 40 39 38 36 34 32 31 28 25 22 21 21 21 21 19 17 19 20 20 19 18 17 18 18 16 16 18 22 27 31 35 36 38 41 44 46 48 51 49 43 40 39 37 35 35
39 43 45 44 41 40 38 34 34 36 36 38 41 41 40 41 41 39 37 36 34 32 30 28 27 24 21 21 21 20 18 19 20 20 19 18 18 16 13 14 15 14 12 13 16 21 26 31 34 37 41 44 47 48 50 50 45 41 41 39 37 36
39 42 45 45 43 40 36 33 34 37 38 40 42 41 41 42 41 38 36 34 32 30 27 26 27 25 21 21 20 17 16 18 18 17 17 16 16 14 11 11 12 11 10 11 12 16 22 27 30 33 37 42 46 48 48 49 46 43 41 39 36 37
37 38 41 44 44 40 36 35 36 36 39 41 41 40 41 42 40 37 35 32 29 28 26 24 24 23 21 21 21 20 19 19 18 16 16 14 14 13 11 10 10 10 9 9 11 14 18 23 26 29 33 37 41 43 45 46 46 44 41 38 35 36
36 37 40 42 42 40 39 39 37 37 40 41 41 42 42 40 37 34 32 31 29 26 24 22 20 20 19 18 19 19 19 20 19 17 15 13 12 11 10 10 9 7 6 7 10 14 16 19 22 25 28 32 35 37 40 42 44 43 41 37 34 34
35 38 38 39 40 40 41 41 40 40 41 42 44 45 42 37 34 32 32 32 28 22 20 19 19 19 18 17 17 17 17 17 18 17 16 17 15 11 9 9 8 8 8 8 10 11 12 14 19 23 27 30 32 33 34 37 38 39 39 37 34 32
37 38 38 39 39 39 41 42 42 42 42 43 46 45 40 38 37 34 31 28 23 20 19 18 18 18 17 17 18 18 18 19 19 19 19 21 22 20 16 13 12 13 14 14 14 13 9 10 15 21 25 28 30 31 33 34 35 36 35 34 32 29
37 37 38 38 37 38 40 42 43 42 43 45 47 43 40 39 36 31 28 26 24 24 25 21 18 17 16 16 17 17 18 20 22 23 23 23 24 24 23 21 18 17 18 19 19 19 17 15 18 21 22 25 29 32 34 35 35 35 33 31 31 29
35 37 38 37 36 38 40 41 41 41 43 47 48 45 41 38 32 26 26 27 27 28 28 25 22 20 18 16 16 16 16 16 18 21 24 26 25 24 24 24 23 22 21 21 21 21 20 20 22 25 27 28 30 31 33 35 36 36 34 34 33 30
33 35 36 36 37 38 39 39 38 39 45 51 53 49 45 40 32 27 26 27 28 29 29 26 24 24 21 20 18 16 15 12 10 11 16 20 23 25 25 24 23 24 24 22 21 21 19 19 21 25 28 29 30 32 33 35 37 38 38 40 38 30
32 34 34 35 37 40 39 38 38 41 48 54 55 52 48 42 33 28 27 29 30 29 28 26 25 24 22 21 20 18 15 11 7 6 8 9 12 16 21 23 23 24 24 23 23 22 21 21 22 23 25 28 30 32 34 35 37 38 39 40 36 28
33 32 33 35 38 40 40 37 37 44 53 58 58 55 48 40 34 29 27 29 29 27 26 26 26 24 23 22 21 19 17 15 13 9 5 4 4 6 10 14 17 20 22 22 22 23 22 22 23 24 25 28 30 31 33 34 33 34 38 40 36 29
32 31 32 35 37 39 39 37 39 49 58 61 60 56 48 39 34 31 28 30 31 28 26 26 26 25 24 23 22 20 18 18 19 17 11 6 4 1 1 3 3 7 10 12 16 19 20 20 22 25 27 29 30 32 32 30 26 25 30 34 32 28
28 29 32 34 36 37 37 39 46 56 61 60 59 56 49 42 37 31 28 30 31 29 28 27 27 26 25 24 22 21 20 21 21 20 19 17 15 11 9 9 12 13 11 7 2 8 16 18 19 22 25 27 29 30 29 25 19 17 20 23 24 23
Wind_Direction
321 319 317 318 319 317 315 314 312 311 313 315 314 310 305 297 292 289 282 273 266 262 264 266 267 272 284 292 294 295 300 310 314 311 311 310 306 311 301 250 210 202 201 198 197 196 195 195 195 193 192 193 193 191 189 188 188 188 190 192 193 195
318 320 320 319 320 317 315 316 316 315 315 315 314 312 310 306 300 294 287 280 269 262 262 264 266 267 274 286 289 288 293 303 310 309 309 311 306 307 307 271 218 200 199 198 195 194 193 194 195 193 191 191 191 190 188 188 188 188 189 191 192 194
317 321 322 320 319 319 319 318 315 312 310 307 304 302 302 305 307 304 296 289 280 269 263 260 263 265 267 278 284 284 290 299 307 309 308 309 305 303 307 289 235 203 197 198 196 194 193 192 193 193 190 189 190 191 190 188 188 189 189 190 191 193
321 322 323 322 320 319 318 318 315 312 311 311 310 304 298 298 303 305 301 295 287 279 273 266 261 261 265 272 278 279 286 296 304 308 307 306 306 301 303 298 258 210 197 198 196 193 193 192 191 191 190 189 189 190 190 188 187 189 191 189 190 194
324 323 323 323 322 320 318 317 315 315 316 317 317 314 310 305 302 301 300 298 292 284 280 275 268 263 263 265 270 274 281 292 301 305 305 303 305 302 297 301 283 228 200 197 197 192 191 192 190 190 190 189 189 188 188 189 187 189 191 190 192 195
327 329 326 324 322 319 317 315 314 315 315 316 315 314 314 313 309 304 300 301 300 293 287 284 278 272 267 261 264 271 277 289 299 302 304 302 302 302 296 299 297 258 209 197 197 193 190 191 190 190 191 190 189 188 187 189 189 190 191 191 194 195
330 329 326 325 323 320 318 315 313 315 315 314 314 313 312 313 313 310 306 304 306 304 297 293 289 283 277 269 264 268 274 286 296 297 301 303 299 302 299 295 299 279 222 198 197 196 192 192 190 190 191 191 192 191 189 189 191 192 193 193 195 196
328 327 325 325 323 320 320 317 313 314 316 314 313 313 312 311 312 313 312 312 311 309 304 300 297 291 285 278 270 270 273 281 293 294 298 304 299 299 300 295 299 290 238 202 196 197 194 193 192 190 190 192 193 192 190 191 192 194 195 195 197 198
324 326 326 326 325 320 318 318 315 314 315 315 314 313 312 311 310 311 312 314 315 314 311 306 302 298 292 285 278 274 275 279 290 294 296 303 300 296 297 295 299 296 255 207 194 197 195 192 192 191 191 193 193 192 191 192 193 194 196 198 199 200
325 326 326 325 325 322 319 318 316 315 314 314 313 312 310 309 308 308 308 309 310 311 311 308 306 304 301 297 290 281 280 284 289 294 296 300 298 293 294 293 296 297 268 215 195 195 195 191 191 191 191 193 193 193 193 194 195 196 198 200 200 201
323 324 324 323 322 322 322 319 316 315 313 313 312 310 309 307 306 306 304 304 303 303 306 305 303 303 302 299 296 290 289 291 293 295 295 297 297 293 292 292 294 296 274 222 196 194 194 191 191 192 192 193 193 194 195 195 196 198 199 200 201 204
321 321 322 323 321 320 321 319 316 315 312 311 310 308 308 307 305 303 301 300 299 297 300 300 298 298 297 293 290 290 293 296 297 297 294 295 296 292 292 293 293 294 274 226 195 191 192 190 193 193 192 193 193 194 196 196 197 200 200 199 200 203
320 321 320 321 320 319 319 318 316 314 311 310 307 305 306 305 302 301 299 297 296 295 295 296 294 292 292 289 285 284 288 292 293 293 292 293 294 291 292 293 292 292 272 225 194 189 191 191 193 193 192 193 193 194 196 196 197 200 201 200 198 200
319 319 318 319 320 319 318 316 314 313 311 309 306 304 303 302 299 298 295 294 295 292 290 291 291 289 288 287 283 280 282 283 284 286 287 289 291 290 290 290 289 288 268 225 194 187 189 190 193 193 193 193 193 194 196 196 197 199 201 201 201 200
319 317 316 316 317 318 318 316 311 309 309 309 307 305 303 301 299 296 292 292 292 288 285 286 287 286 285 284 281 278 277 275 276 278 280 283 287 287 285 286 287 283 262 224 195 187 187 188 191 193 194 194 193 193 195 195 196 198 200 202 203 203
319 317 315 315 315 315 316 314 310 307 308 308 307 305 303 302 300 295 290 289 288 285 284 283 281 282 283 281 278 275 269 267 268 270 274 279 283 282 281 282 283 276 255 222 196 187 187 187 190 194 195 195 195 194 195 196 197 198 200 202 202 202
319 316 315 315 315 314 313 313 311 308 308 310 309 306 303 301 300 298 295 291 287 284 282 279 277 280 282 280 277 273 264 259 262 265 269 274 275 276 279 281 279 268 250 221 195 185 185 188 191 194 196 197 197 197 196 196 198 200 201 203 203 203
317 313 312 312 312 311 311 311 311 308 306 308 310 307 304 302 300 299 299 294 289 285 282 278 279 283 283 279 276 274 266 258 257 260 264 267 270 273 278 279 274 258 239 220 197 183 183 187 191 193 196 197 198 198 197 196 198 200 202 203 203 205
315 311 310 310 308 308 309 311 313 310 306 306 308 306 305 303 301 300 300 299 296 291 285 281 283 286 284 277 272 272 269 262 258 257 258 260 265 272 278 278 267 249 230 214 198 186 183 186 191 193 195 196 196 196 196 196 197 198 202 204 204 204
316 310 308 307 306 308 312 314 316 314 310 308 309 309 307 305 303 303 303 303 301 298 292 286 286 287 283 275 270 272 273 268 258 252 252 256 262 270 280 277 259 241 225 209 198 191 186 186 191 193 194 196 196 195 195 196 196 197 199 203 204 204
315 310 309 308 307 309 315 317 317 316 312 311 312 311 309 306 306 306 305 302 300 299 296 290 287 285 280 274 271 273 273 266 255 247 249 257 263 271 281 274 251 232 222 209 199 194 190 190 192 193 194 195 196 196 195 195 196 197 197 199 201 203
315 313 312 312 310 312 317 320 320 318 315 315 314 312 310 308 307 306 304 302 300 298 296 292 288 282 275 271 272 274 271 260 247 246 255 263 267 274 279 268 244 226 220 210 201 196 194 194 193 194 196 197 197 198 196 195 196 197 196 198 199 201
314 311 310 311 312 314 317 320 320 318 318 317 315 313 312 310 307 305 304 302 300 298 296 293 289 283 274 266 266 272 272 263 251 255 265 268 269 274 276 263 240 225 219 211 202 198 197 197 197 196 196 198 199 199 198 197 199 198 195 196 199 201
315 312 310 312 313 316 320 322 319 318 319 317 314 314 313 310 307 305 303 301 298 296 294 291 290 286 276 269 266 268 271 272 269 269 270 269 270 273 271 258 237 221 217 212 206 201 199 199 200 200 200 201 201 202 200 200 201 200 195 194 198 202
317 314 312 313 316 319 323 325 322 320 319 316 314 314 312 309 307 304 301 298 296 294 292 292 293 287 274 268 269 267 269 275 275 273 271 268 268 270 266 251 232 217 210 209 207 205 202 200 201 202 203 202 202 203 203 203 202 200 197 195 197 201
317 315 314 316 319 320 323 327 327 324 318 314 314 315 313 309 307 305 301 298 296 295 293 295 298 290 270 261 264 260 260 267 268 267 268 266 263 265 261 244 227 214 206 205 203 202 202 201 201 202 203 203 202 202 203 204 203 201 200 199 199 199
317 317 315 315 319 323 326 329 329 325 319 317 318 317 314 310 307 306 303 298 296 297 296 296 299 293 273 258 259 257 254 259 261 262 264 261 256 256 254 241 225 212 205 205 202 200 200 199 199 200 202 202 202 202 203 204 204 203 202 201 199 198
317 318 316 316 320 326 328 329 329 325 321 320 320 318 315 311 308 305 302 299 298 299 297 295 297 295 280 262 257 256 255 256 257 257 256 253 249 247 245 239 226 212 206 205 201 199 198 196 194 196 199 201 201 202 204 205 206 206 204 202 201 199
320 320 320 319 322 326 328 328 329 327 324 323 323 320 317 313 308 303 302 303 302 300 298 295 293 295 291 276 264 259 257 255 254 252 249 246 242 239 238 237 227 212 206 204 200 197 196 194 192 192 194 197 198 200 202 203 204 205 204 202 202 200
320 321 321 319 321 326 329 327 327 329 330 331 328 324 319 315 312 309 308 308 305 298 296 295 292 293 294 288 278 268 261 256 252 248 245 241 236 229 225 228 225 215 210 205 199 194 192 195 195 192 192 193 194 195 197 199 200 200 199 199 199 197
320 321 320 319 322 327 328 326 325 330 334 334 331 328 324 321 319 317 317 317 313 307 305 301 294 292 293 294 290 279 270 263 255 248 246 243 239 234 229 226 223 215 210 206 202 196 191 197 200 198 195 193 192 192 193 194 196 197 197 196 193 188
321 320 319 321 324 326 326 325 326 329 334 335 333 331 327 325 324 324 326 329 329 326 323 315 305 300 296 295 294 288 282 276 265 254 248 243 240 237 234 234 235 225 212 207 205 205 205 203 200 198 196 194 194 194 194 194 195 195 194 191 186 180
322 322 323 324 325 326 326 326 327 330 334 338 338 335 330 327 327 328 331 333 333 332 331 327 324 324 319 309 302 293 286 284 275 263 253 244 239 239 238 239 242 236 221 211 207 207 208 206 202 201 200 198 196 195 194 195 195 193 190 186 181 178
324 324 323 323 325 328 328 327 328 333 338 342 343 341 337 335 333 330 331 333 333 333 334 332 332 334 336 334 329 317 301 289 278 270 262 251 243 242 241 241 243 239 228 218 211 205 201 201 202 203 202 200 198 197 197 196 195 193 190 186 183 183
323 321 321 323 326 328 328 327 329 336 342 346 347 345 343 341 338 333 333 335 335 334 335 336 337 336 337 338 337 334 330 323 303 280 276 272 260 250 244 241 241 237 228 221 216 212 206 203 203 205 206 206 205 203 200 198 196 194 190 186 186 190
319 319 324 327 328 329 330 328 330 339 348 351 351 350 348 344 339 337 337 338 338 338 337 338 339 339 338 337 335 336 342 346 341 329 301 279 279 259 241 235 235 234 228 222 218 216 213 209 207 209 211 211 210 208 204 199 195 193 191 189 191 196
320 322 328 331 332 332 330 327 334 346 354 356 355 353 351 346 341 339 340 340 342 344 343 341 341 341 341 342 341 340 346 354 356 356 353 348 349 341 204 184 203 224 227 226 224 221 217 212 211 213 214 213 212 210 204 196 190 189 192 194 196 199
323 327 334 336 336 333 330 333 344 353 358 359 357 354 353 350 345 341 341 344 347 349 348 345 344 345 347 348 348 350 357 6 10 10 13 17 20 24 31 38 37 38 44 42 358 225 216 212 212 212 212 212 212 207 198 192 191 192 193 197 201 203